QZS-6 (QZSS/PRN 200)

Last updated on Sat Sep 05 2026 00:03:32 GMT+0000 (Coordinated Universal Time)

1 62876U 25023A 26247.61387339 -.00000240 00000+0 00000+0 0 9997 2 62876 0.0199 69.2048 0001651 116.8447 109.1937 1.00271890 5747
UTC large
Height (km)
Speed (km/s)
/
Latitude / Longitude
Inclination (degrees)
Orbital Period (minutes)
Azimuth
Elevation
Range (km)
Doppler Factor

Next 0 passes for location: London (51.5072 / 0.1276)

No passes found over London.
QZS-6 (QZSS/PRN 200)